星链-3989 (STARLINK-3989 )

导读

STARLINK-3989是美国SpaceX公司星链(Starlink)星座的卫星,于2022年5月14日发射入轨。星链星座旨在构建全球低轨卫星互联网,为传统基础设施匮乏地区提供高速宽带服务,这颗卫星运行于近地轨道,助力实现更低网络时延,支撑高清视频通话、在线游戏等应用,是星链大规模组网中的一员,推动全球卫星互联网覆盖建设。

基本信息
目录编号:
52630
目录名称:
STARLINK-3989
国际标识:
2022-052AJ
轨道中心:
EARTH
卫星名称:
星链-3989
卫星全名:
星链-3989 (STARLINK-3989 )
卫星状态:
在轨 (已飞行1495 天)
发射日期:
2022-05-14 UTC
国别 :
美国 (US)
星等 :
--
轨道信息
数据来源 国际轨道数据 AOE轨道数据
星历时间 2026-06-17T02:02:05+0800
19小时前
查看轨道信息
2026-06-15T23:00:00+0800
1天前
查看轨道信息
半长轴 6916.657km 6917.906km
偏心率 0.0001284 0.0001053
轨道倾角 53.159° 53.158°
近地点辐角 108.047° 75.489°
升交点赤经 184.318° 189.386°
平近点角 252.066° 280.301°
近地点 537.631km 539.04km
远地点 539.409km 540.498km
周期 95.412分钟 95.438分钟
每日圈数 15.092405 15.088319
详细信息
固有亮度:
5
最大亮度:
2.5
卫星平台:
Starlink v1.5
覆盖范围:
全球
运营商:
太空探索技术公司
运营商所在国:
美国
制造商(研发单位):
太空探索技术公司
制造商所在国:
美国
使用方式:
暂无
卫星简介
星链(Starlink)计划是由太空探索技术公司(SpaceX)提出的一个巨型低轨卫星互联网星座项目,计划在2019年至2024年间在太空搭建由约1.2万颗卫星组成的“星链”网络,其中1584颗将部署在地球上空550千米处的近地轨道,并从2020年开始工作。该卫星仍在工作。
2D轨道图
3D轨道图
轨道高度分析图
轨道倾角分析图
轨道综合分析图
查看轨道综合分析图